Regional Weather Roundup
Issued by NWS

Home | Current Version | Previous Version | Graphics & Text | Print | Product List | Glossary On
Versions: 1 2 3 4 5 6 7 8 9 10 11 12 13 14 15 16 17 18 19 20 21 22 23 24 25 26 27 28 29 30 31 32 33 34 35 36 37 38 39 40 41 42 43 44 45 46 47 48 49 50
000
ASUS45 KTFX 260119
RWRMT
MONTANA HOURLY WEATHER ROUNDUP
NATIONAL WEATHER SERVICE GREAT FALLS MT
719 PM MDT FRI JUL 25 2014

NOTE: "FAIR" INDICATES FEW OR NO CLOUDS BELOW 12000 FEET WITH NO
SIGNIFICANT WEATHER AND/OR OBSTRUCTIONS TO VISIBILITY.

* THESE STATIONS ARE NOT UNDER NWS QUALITY CONTROL. THEY DO NOT
   REPORT WEATHER SUCH AS PRECIPITATION OR FOG.

MTZ001>007-043-260200-
WEST OF THE DIVIDE
CITY           SKY/WX    TMP DP  RH WIND       PRES   REMARKS
KALISPELL      FAIR      73  39  29 W14G22    30.01R
MISSOULA       CLEAR     79  36  21 W14       30.03R
BUTTE          PTCLDY    73  27  18 NW17G22   30.09R
MULLAN PASS    CLEAR     57  45  64 N/A       30.19S
* ESSEX        N/A       67  40  37 SW4        N/A
* LINCOLN      N/A       73  39  29 W5G20      N/A
* LOOKOUT PASS N/A       64  44  48 NE1G13     N/A
* POLSON       N/A       75  39  27 NW3G9      N/A
* RONAN APT    CLEAR     75  43  32 W6         N/A
* SEELEY LAKE  N/A       73  38  28 W9G19      N/A
* THOMP F APT  CLEAR     76  22  13 S10G21     N/A
$$

MTZ008-052>055-260200-
SOUTHWEST MONTANA
CITY           SKY/WX    TMP DP  RH WIND       PRES   REMARKS
BOZEMAN        PTCLDY    77  34  21 NW15      29.98R
DILLON         PTCLDY    77  39  26 N7        30.02S
W YELLOWSTONE  CLEAR     72  25  17 SW13G21   30.14S
* THREE FORKS  PTCLDY    82  37  20 NW13G23    N/A
* BOULDER HILL N/A       71  30  22 VRB4G11    N/A
* MONIDA PASS  N/A       74  18  12 S12G17     N/A
* RAYNOLDS PAS N/A       74  58  58 S11G17     N/A
* WHITEHALL    N/A       82  24  12 NW14G27    N/A
* WISE RIVER   N/A       73  27  18 NW15G25    N/A
$$

MTZ009>010-012-014-046-048-049-054-260200-
EAST SLOPES AND CENTRAL MONTANA
CITY           SKY/WX    TMP DP  RH WIND       PRES   REMARKS
CUT BANK       CLEAR     72  36  27 W25G33    29.95R
GREAT FALLS    PTCLDY    77  30  18 W24G32    29.94R
HELENA         CLEAR     81  30  16 NW18G28   29.98R
MALMSTROM AFB  PTCLDY    77  32  19 W25G32    29.95R
* CONRAD       CLEAR     73  39  29 W20G29     N/A
* DEARBORN     N/A       77  36  23 S22G29     N/A
* EAST GLACIER N/A       64  35  34 NW18G26    N/A
* MONARCH      N/A       70  25  18 W23G34     N/A
* PENDROY      N/A       70  37  30 NW17G26    N/A
* ROGERS PASS  N/A       67  34  29 SE4G12     N/A
* SAINT MARY   N/A       69  37  31 W7G24      N/A
* SWEET GRASS  N/A       72  36  27 NW24G35    N/A
* WHITE SULPH  N/A       73  32  22 NW16G26    N/A
$$

MTZ011-013-016-021-035-040-045-047-050-051-260200-
NORTH CENTRAL MONTANA
CITY           SKY/WX    TMP DP  RH WIND       PRES   REMARKS
HAVRE          CLEAR     73  46  38 NW23G30   29.84R
LEWISTOWN      CLEAR     79  30  17 NW24G32   29.93R
* FORT BENTON  CLEAR     79  34  20 W22G33    29.89R
* CHESTER      N/A       75  34  22 NW19G32    N/A
* DENTON       N/A       78  32  19 W26G37     N/A
* GEYSER       N/A       75  32  21 W30G43     N/A
* JUDITH GAP   N/A       77  29  17 W23G30     N/A
* LOMA         N/A       78  35  21 W20G37     N/A
$$

MTZ017>020-022>027-061-062-260200-
NORTHEAST MONTANA
CITY           SKY/WX    TMP DP  RH WIND       PRES   REMARKS
GLASGOW        CLEAR     82  34  18 W22G36    29.74R
GLENDIVE       CLEAR     84  34  17 W15       29.79R
JORDAN         CLEAR     84  25  11 NW24G32   29.79S
SIDNEY         CLEAR     82  34  18 NW9       29.76S
WOLF POINT     CLEAR     84  32  15 W17G26    29.73S
* BEAVER HILL  N/A       82  36  19 NW16       N/A
* CIRCLE       N/A       83  35  18 SW14       N/A
* LINDSAY DVD  N/A       80  34  19 W19G29     N/A
* NAVAJO       N/A       75  43  32 W17G26     N/A
$$

MTZ028>042-056>058-260200-
SOUTHCENTRAL AND SOUTHEAST MONTANA
CITY           SKY/WX    TMP DP  RH WIND       PRES   REMARKS
BAKER          CLEAR     84  37  19 W12       29.83R
BILLINGS       PTCLDY    84  27  12 N22       29.89R
LIVINGSTON     PTCLDY    82  25  12 NW22G31   29.94R
MILES CITY     CLEAR     88  19   8 W24       29.79R
* LAUREL APT   CLEAR     86  34  16 NW11       N/A
* ROUNDUP APT  CLEAR     82  27  13 W24G31     N/A
* ALZADA       N/A       83  45  26 E8         N/A
* HYSHAM       N/A       83  29  14 W20G38     N/A
* LAME DEER    N/A       81  29  15 NW9G16     N/A
* REED POINT   N/A       85  35  17 W17G24     N/A
* ROSCOE HILL  N/A       79  30  17 N13        N/A
$$

REGIONAL REPORTS...DAKOTAS
CITY           SKY/WX    TMP DP  RH WIND       PRES   REMARKS
WILLISTON      CLEAR     82  36  19 W13       29.74F
DICKINSON      CLEAR     81  54  39 S9        29.79S
CROSBY         CLEAR     72  57  59 W6        29.73F
TIOGA          CLEAR     73  55  53 SW5       29.79S
WATFORD CITY   CLEAR     77  48  36 N7        29.74R
BISMARCK       CLEAR     81  48  32 SW3       29.80F
GRAND FORKS    CLEAR     75  59  58 W6        29.74R
FARGO          CLEAR     79  55  44 NW8       29.76R
BUFFALO SD     CLEAR     79  50  36 SE9       29.79S
RAPID CITY     MOCLDY    77  57  50 SE7       29.85F
$$

REGIONAL REPORTS...WYOMING/IDAHO/WASHINGTON
CITY           SKY/WX    TMP DP  RH WIND       PRES   REMARKS
GILLETTE       PTCLDY    86  45  24 NE20      29.87R
SHERIDAN       CLEAR     86  48  27 N7        29.88R
YELLOWSTONE LA CLEAR     68  16  13 VRB6      30.25S
SALMON         PTCLDY    81  36  20 N10       29.94R
MULLAN PASS    CLEAR     57  45  64 N/A       30.19S
SAND POINT     PTCLDY    72  41  33 SW5       30.04S
SPOKANE        FAIR      75  36  24 NW8       30.04F
$$

REGIONAL REPORTS...ALBERTA
CITY           SKY/WX    TMP DP  RH WIND       PRES   REMARKS
CALGARY        CLOUDY    61  46  58 NW14G23   29.92R
LETHBRIDGE     MOCLDY    63  50  63 NE12G20   29.90R
MEDICINE HAT   LGT RAIN  59  52  78 NW31G45   29.83S
EDMONTON       LGT RAIN  55  54  96 NW17G25   29.84R
WATERTON GATE  N/A       68  37  32 W14G23     N/A
CARDSTON       N/A       70  43  38 W10G21     N/A
$$

REGIONAL REPORTS...SASKATCHEWAN
CITY           SKY/WX    TMP DP  RH WIND       PRES   REMARKS
SWIFT CURRENT  CLOUDY    54  52  93 W25G36    29.69R
REGINA         LGT RAIN  57  54  90 S7        29.70F
VAL MARIE      N/A       63  48  58 NW18G24    N/A
ASSINIBOIA     N/A       59  50  72 W16        N/A
CORONACH       N/A       64  50  61 NW20G28    N/A

$$




USA.gov is the U.S. government's official web portal to all federal, state and local government web resources and services.